• In Uzbekistan
  • List of Countries
  • For 7 days
  • Water Temperature
  • Satellite Maps
  • Weather Map
  • Weather Widgets
  • user-avatar
    Login

    Hourly Weather Kerpichli

    Today, 23 October, Tuesday

    Time Temperature Precipitation Wind Pressure Humidity
    00:00 +20°C° 0 mm 1 mps 740 mmHg 21%
    01:00 +19°C° 0 mm 1 mps 740 mmHg 22%
    02:00 +19°C° 0 mm 1 mps 741 mmHg 22%
    03:00 +18°C° 0 mm 1 mps 741 mmHg 23%
    04:00 +18°C° 0 mm 1 mps 741 mmHg 23%
    05:00 +18°C° 0 mm 1 mps 741 mmHg 22%
    06:00 +18°C° 0 mm 2 mps 741 mmHg 21%
    07:00 +18°C° 0 mm 2 mps 741 mmHg 20%
    08:00 +20°C° 0 mm 2 mps 741 mmHg 18%
    09:00 +24°C° 0 mm 3 mps 742 mmHg 15%
    10:00 +26°C° 0 mm 3 mps 742 mmHg 12%
    11:00 +27°C° 0 mm 3 mps 741 mmHg 12%
    12:00 +28°C° 0 mm 4 mps 741 mmHg 11%
    13:00 +29°C° 0 mm 4 mps 741 mmHg 11%
    14:00 +28°C° 0 mm 3 mps 741 mmHg 11%
    15:00 +28°C° 0 mm 3 mps 741 mmHg 12%
    16:00 +28°C° 0 mm 2 mps 741 mmHg 13%
    17:00 +26°C° 0 mm 2 mps 741 mmHg 14%
    18:00 +25°C° 0 mm 2 mps 741 mmHg 16%
    19:00 +23°C° 0 mm 2 mps 741 mmHg 17%
    20:00 +23°C° 0 mm 2 mps 740 mmHg 18%
    21:00 +21°C° 0 mm 2 mps 740 mmHg 19%
    22:00 +20°C° 0 mm 2 mps 740 mmHg 19%
    23:00 +20°C° 0 mm 2 mps 740 mmHg 20%

    Tomorrow, 24 October, Wednesday

    Time Temperature Precipitation Wind Pressure Humidity
    00:00 +19°C° 0 mm 2 mps 740 mmHg 21%
    01:00 +18°C° 0 mm 2 mps 740 mmHg 22%
    02:00 +18°C° 0 mm 2 mps 740 mmHg 22%
    03:00 +18°C° 0 mm 2 mps 739 mmHg 23%
    04:00 +17°C° 0 mm 2 mps 739 mmHg 23%
    05:00 +17°C° 0 mm 2 mps 740 mmHg 23%
    06:00 +18°C° 0 mm 2 mps 740 mmHg 22%
    07:00 +18°C° 0 mm 2 mps 740 mmHg 22%
    08:00 +20°C° 0 mm 2 mps 740 mmHg 19%
    09:00 +24°C° 0 mm 3 mps 740 mmHg 16%
    10:00 +26°C° 0 mm 4 mps 740 mmHg 13%
    11:00 +27°C° 0 mm 4 mps 740 mmHg 12%
    12:00 +28°C° 0 mm 4 mps 740 mmHg 11%
    13:00 +29°C° 0 mm 5 mps 739 mmHg 10%
    14:00 +29°C° 0 mm 4 mps 739 mmHg 11%
    15:00 +28°C° 0 mm 4 mps 739 mmHg 11%
    16:00 +28°C° 0 mm 3 mps 739 mmHg 11%
    17:00 +27°C° 0 mm 3 mps 739 mmHg 13%
    18:00 +26°C° 0 mm 3 mps 739 mmHg 14%
    19:00 +24°C° 0 mm 3 mps 739 mmHg 15%
    20:00 +22°C° 0 mm 3 mps 739 mmHg 15%
    21:00 +22°C° 0 mm 3 mps 739 mmHg 16%
    22:00 +21°C° 0 mm 3 mps 739 mmHg 17%
    23:00 +21°C° 0 mm 3 mps 739 mmHg 17%

    Day after tomorrow, 25 October, Thursday

    Time Temperature Precipitation Wind Pressure Humidity
    00:00 +20°C° 0 mm 3 mps 739 mmHg 17%
    01:00 +20°C° 0 mm 3 mps 739 mmHg 17%
    02:00 +19°C° 0 mm 3 mps 739 mmHg 17%
    03:00 +19°C° 0 mm 3 mps 739 mmHg 18%
    04:00 +19°C° 0 mm 3 mps 739 mmHg 18%
    05:00 +19°C° 0 mm 3 mps 739 mmHg 17%
    06:00 +19°C° 0 mm 3 mps 739 mmHg 17%
    07:00 +20°C° 0 mm 3 mps 739 mmHg 16%
    08:00 +22°C° 0 mm 5 mps 739 mmHg 14%
    09:00 +26°C° 0 mm 6 mps 739 mmHg 12%
    10:00 +28°C° 0 mm 8 mps 739 mmHg 9%
    11:00 +29°C° 0 mm 8 mps 739 mmHg 9%
    12:00 +31°C° 0 mm 8 mps 738 mmHg 9%
    13:00 +32°C° 0 mm 8 mps 738 mmHg 9%
    14:00 +32°C° 0 mm 8 mps 738 mmHg 10%
    15:00 +31°C° 0 mm 8 mps 738 mmHg 10%
    16:00 +31°C° 0 mm 8 mps 737 mmHg 10%
    17:00 +29°C° 0 mm 8 mps 737 mmHg 10%
    18:00 +28°C° 0 mm 8 mps 738 mmHg 11%
    19:00 +26°C° 0 mm 8 mps 738 mmHg 11%
    20:00 +26°C° 0 mm 8 mps 738 mmHg 11%
    21:00 +26°C° 0 mm 8 mps 738 mmHg 12%
    22:00 +26°C° 0 mm 9 mps 738 mmHg 12%
    23:00 +26°C° 0 mm 9 mps 737 mmHg 12%

    26 October, Friday

    Time Temperature Precipitation Wind Pressure Humidity
    00:00 +26°C° 0 mm 9 mps 737 mmHg 12%
    01:00 +26°C° 0 mm 10 mps 737 mmHg 12%
    02:00 +26°C° 0 mm 10 mps 737 mmHg 12%
    03:00 +26°C° 0 mm 10 mps 737 mmHg 12%
    04:00 +26°C° 0 mm 10 mps 737 mmHg 13%
    05:00 +26°C° 0 mm 10 mps 738 mmHg 13%
    06:00 +26°C° 0 mm 10 mps 738 mmHg 13%
    07:00 +27°C° 0 mm 11 mps 738 mmHg 13%
    08:00 +28°C° 0 mm 11 mps 738 mmHg 12%
    09:00 +31°C° 0 mm 12 mps 739 mmHg 11%
    10:00 +33°C° 0 mm 12 mps 739 mmHg 10%
    11:00 +33°C° 0 mm 12 mps 738 mmHg 10%
    12:00 +34°C° 0 mm 12 mps 738 mmHg 10%
    13:00 +36°C° 0 mm 12 mps 737 mmHg 10%
    14:00 +34°C° 0 mm 11 mps 737 mmHg 10%
    15:00 +34°C° 0 mm 11 mps 737 mmHg 10%
    16:00 +33°C° 0 mm 11 mps 737 mmHg 11%
    17:00 +32°C° 0 mm 11 mps 737 mmHg 11%
    18:00 +31°C° 0 mm 10 mps 737 mmHg 12%
    19:00 +29°C° 0 mm 10 mps 737 mmHg 12%
    20:00 +29°C° 0 mm 10 mps 737 mmHg 12%
    21:00 +29°C° 0 mm 11 mps 737 mmHg 13%
    22:00 +29°C° 0 mm 11 mps 737 mmHg 13%
    23:00 +29°C° 0 mm 11 mps 737 mmHg 13%

    27 October, Saturday

    Time Temperature Precipitation Wind Pressure Humidity
    00:00 +29°C° 0 mm 11 mps 737 mmHg 13%
    01:00 +29°C° 0 mm 11 mps 737 mmHg 13%
    02:00 +29°C° 0 mm 11 mps 737 mmHg 13%
    03:00 +28°C° 0 mm 11 mps 737 mmHg 13%
    04:00 +28°C° 0 mm 11 mps 737 mmHg 14%
    05:00 +28°C° 0 mm 11 mps 737 mmHg 14%
    06:00 +28°C° 0 mm 11 mps 738 mmHg 14%
    07:00 +29°C° 0 mm 11 mps 738 mmHg 14%
    08:00 +31°C° 0 mm 12 mps 738 mmHg 13%
    09:00 +33°C° 0 mm 12 mps 738 mmHg 12%
    10:00 +34°C° 0 mm 13 mps 738 mmHg 11%
    11:00 +36°C° 0 mm 12 mps 738 mmHg 11%
    12:00 +36°C° 0 mm 11 mps 738 mmHg 11%
    13:00 +37°C° 0 mm 10 mps 738 mmHg 11%
    14:00 +35°C° 0 mm 8 mps 738 mmHg 13%
    15:00 +34°C° 0 mm 7 mps 738 mmHg 14%
    16:00 +34°C° 0 mm 5 mps 739 mmHg 16%
    17:00 +32°C° 0 mm 6 mps 740 mmHg 23%
    18:00 +29°C° 0 mm 6 mps 740 mmHg 31%
    19:00 +27°C° 0 mm 7 mps 741 mmHg 38%
    20:00 +26°C° 0.1 mm 8 mps 742 mmHg 44%
    21:00 +24°C° 0.1 mm 8 mps 743 mmHg 50%
    22:00 +23°C° 0.1 mm 9 mps 744 mmHg 56%
    23:00 +21°C° 0.4 mm 9 mps 744 mmHg 61%

    28 October, Sunday

    Time Temperature Precipitation Wind Pressure Humidity
    00:00 +19°C° 0.4 mm 10 mps 745 mmHg 66%
    01:00 +18°C° 0.4 mm 10 mps 746 mmHg 71%
    02:00 +18°C° 1.5 mm 10 mps 746 mmHg 71%
    03:00 +17°C° 1.5 mm 9 mps 747 mmHg 72%
    04:00 +17°C° 1.5 mm 9 mps 748 mmHg 72%
    05:00 +16°C° 0.5 mm 8 mps 749 mmHg 69%
    06:00 +16°C° 0.5 mm 8 mps 749 mmHg 65%
    07:00 +16°C° 0.5 mm 7 mps 750 mmHg 62%
    08:00 +16°C° 0.1 mm 7 mps 751 mmHg 57%
    09:00 +16°C° 0.1 mm 7 mps 751 mmHg 51%
    10:00 +16°C° 0.1 mm 6 mps 752 mmHg 46%
    11:00 +17°C° 0 mm 7 mps 752 mmHg 43%
    12:00 +17°C° 0 mm 7 mps 752 mmHg 39%
    13:00 +18°C° 0 mm 7 mps 751 mmHg 35%
    14:00 +18°C° 0 mm 7 mps 751 mmHg 33%
    15:00 +18°C° 0 mm 7 mps 751 mmHg 30%
    16:00 +18°C° 0 mm 8 mps 751 mmHg 28%
    17:00 +18°C° 0 mm 8 mps 751 mmHg 29%
    18:00 +17°C° 0 mm 8 mps 751 mmHg 30%
    19:00 +16°C° 0 mm 8 mps 752 mmHg 31%
    20:00 +16°C° 0 mm 8 mps 751 mmHg 33%
    21:00 +16°C° 0 mm 7 mps 751 mmHg 36%
    22:00 +15°C° 0 mm 7 mps 751 mmHg 39%
    23:00 +15°C° 0 mm 7 mps 750 mmHg 39%

    29 October, Monday

    Time Temperature Precipitation Wind Pressure Humidity
    00:00 +14°C° 0 mm 6 mps 750 mmHg 40%
    01:00 +14°C° 0 mm 6 mps 750 mmHg 41%
    02:00 +13°C° 0 mm 5 mps 749 mmHg 43%
    03:00 +13°C° 0 mm 4 mps 749 mmHg 44%
    04:00 +13°C° 0 mm 3 mps 749 mmHg 46%
    05:00 +13°C° 0 mm 3 mps 749 mmHg 46%
    06:00 +13°C° 0 mm 3 mps 749 mmHg 47%
    07:00 +13°C° 0 mm 3 mps 749 mmHg 47%
    08:00 +14°C° 0 mm 3 mps 749 mmHg 43%
    09:00 +16°C° 0 mm 3 mps 749 mmHg 39%
    10:00 +18°C° 0 mm 3 mps 749 mmHg 35%
    11:00 +18°C° 0 mm 3 mps 748 mmHg 33%
    12:00 +19°C° 0 mm 2 mps 748 mmHg 31%
    13:00 +20°C° 0 mm 2 mps 748 mmHg 29%
    14:00 +21°C° 0 mm 1 mps 747 mmHg 29%
    15:00 +21°C° 0 mm 1 mps 747 mmHg 29%
    16:00 +22°C° 0 mm 1 mps 747 mmHg 29%
    17:00 +21°C° 0 mm 1 mps 747 mmHg 30%
    18:00 +20°C° 0 mm 1 mps 747 mmHg 32%
    19:00 +19°C° 0 mm 2 mps 747 mmHg 33%
    20:00 +18°C° 0 mm 2 mps 747 mmHg 34%
    21:00 +18°C° 0 mm 2 mps 747 mmHg 35%
    22:00 +17°C° 0 mm 2 mps 747 mmHg 36%
    23:00 +17°C° 0 mm 2 mps 747 mmHg 37%
    Show more